Overview Statistics Trail Chart Weather Telemetry Raw packets
 

This is the latest recevied weather packets stored in our database for station/object IU8UOQ-5. If no packets are shown the sender has not sent any weather packets the latest 10 day(s).

<< 1 2 3 4 >>
Time Temp. Humidity Pressure Rain* Wind** Luminosity Snow
1788612941 33.33° C 34% 1010.8 hPa - - - -
1788611739 32.78° C 34% 1010.8 hPa - - - -
1788610823 32.78° C 35% 1011 hPa - - - -
1788609599 32.78° C 35% 1011 hPa - - - -
1788608398 32.78° C 34% 1011 hPa - - - -
1788607196 32.22° C 36% 1011.1 hPa - - - -
1788605995 31.67° C 39% 1011.1 hPa - - - -
1788604794 31.67° C 36% 1011 hPa - - - -
1788603593 31.67° C 37% 1011 hPa - - - -
1788602391 31.67° C 38% 1011 hPa - - - -
1788601190 31.11° C 39% 1011.1 hPa - - - -
1788599989 30.56° C 38% 1011.1 hPa - - - -
1788598788 30° C 42% 1011.3 hPa - - - -
1788597586 29.44° C 54% 1011.2 hPa - - - -
1788596385 29.44° C 60% 1011.2 hPa - - - -
1788595184 28.89° C 63% 1011.1 hPa - - - -
1788593983 28.89° C 65% 1011.1 hPa - - - -
1788592781 28.33° C 62% 1011 hPa - - - -
1788591580 28.33° C 46% 1011 hPa - - - -
1788590379 27.78° C 44% 1010.8 hPa - - - -
1788589178 26.11° C 47% 1010.8 hPa - - - -
1788587976 25.56° C 51% 1010.9 hPa - - - -
1788586775 25.56° C 52% 1010.7 hPa - - - -
1788585581 25° C 50% 1010.6 hPa - - - -
1788584372 25.56° C 50% 1010.5 hPa - - - -

* Rain since midnight (hover to see other rain measurements)
** Current wind speed in m/s (hover to see current wind gust speed)